Regional Weather Roundup
Issued by NWS Sioux Falls, SD

Home | Current Version | Previous Version | Graphics & Text | Print | Product List | Glossary On
Versions: 1 2 3 4 5 6 7 8 9 10 11 12 13 14 15 16 17 18 19 20 21 22 23 24 25 26 27 28 29 30 31 32 33 34 35 36 37 38 39 40 41 42 43 44 45 46 47 48 49 50
000
ASUS43 KFSD 210702
RWRFSD

WEATHER ROUNDUP FOR SE SOUTH DAKOTA/SW MINNESOTA/NW IOWA
NATIONAL WEATHER SERVICE SIOUX FALLS SD
200 AM CDT MON AUG 21 2017

NOTE: "FAIR" INDICATES FEW OR NO CLOUDS BELOW 12,000 FEET WITH NO
SIGNIFICANT WEATHER AND OR OBSTRUCTIONS TO VISIBILITY.


SDZ038>040-050-052>070-210800-
SOUTHEAST SOUTH DAKOTA

CITY           SKY/WX    TMP DP  RH WIND       PRES   REMARKS
BROOKINGS      PTCLDY    61  59  93 CALM      30.01
CHAMBERLAIN    CLEAR     64  59  85 E5        29.98F
HURON          CLEAR     58  56  93 CALM      29.98F
MADISON        FAIR      59  59 100 E6        30.01F
MITCHELL       CLEAR     61  58  90 N5        29.97F
SIOUX FALLS    MOCLDY    65  63  93 NE7       30.00R
WINNER         FAIR      66  62  87 E7        29.98F
YANKTON        PTCLDY    68  65  90 NE8       29.96S
$$

MNZ071-072-080-081-089-090-097-098-210800-
SOUTHWEST MINNESOTA

CITY           SKY/WX    TMP DP  RH WIND       PRES   REMARKS
FAIRMONT       CLOUDY    67  66  97 NE3       30.00R
JACKSON        CLOUDY    66  64  94 CALM      30.02S
LUVERNE        CLOUDY    64  61  88 NE6       30.02R
MARSHALL       PTCLDY    60  59  96 CALM      30.03S
MONTEVIDEO     CLEAR     57  54  88 NE5       30.02F
PIPESTONE      PTCLDY    64  61  88 E7        30.02R
REDWOOD FALLS  CLEAR     63  60  90 CALM      30.01F
TRACY          CLEAR     63  63  98 CALM      30.03R
WINDOM         CLOUDY    66  64  94 NE5       30.03R
WORTHINGTON    CLOUDY    65  64  97 NE9       30.02S
$$

IAZ001>003-012>014-020>022-031-032-NEZ013-014-SDZ071-210800-
NORTHWEST IOWA

CITY           SKY/WX    TMP DP  RH WIND       PRES   REMARKS
ESTHERVILLE    CLOUDY    67  67 100 E3        30.00S
ORANGE CITY    LGT RAIN  72  72 100 SE5       29.98F
SHELDON        CLOUDY    70  66  88 CALM      29.99R
SIOUX CITY     CLOUDY    70  69  97 CALM      29.96S
SPENCER        CLOUDY    70  68  93 SE15      30.00S THUNDER
STORM LAKE     CLOUDY    70  66  88 S15       30.00F
$$

ABBREVIATIONS USED IN REMARKS
   TC - TEMPERATURE IN CELSIUS
  WCI - WIND CHILL INDEX
   HX - HEAT INDEX
  VSB - VISIBILITY





USA.gov is the U.S. government's official web portal to all federal, state and local government web resources and services.